This demonstration page uses our WeatherBlox Daily Observations layout. Learn more.

Left ArrowRight Arrow

Hourly Observations for December 21, 2015

Temp ( °F °C ) Dew Point ( °F °C ) Humidity (%) Winds ( mph kmh ) Pressure ( in mb ) Visibility ( mi km ) Precip ( " mm )
12:53 am 00:53 Cloudy with Light Rain 44 6.7 40 4.4 85 85 WNW 3 6 30.13 1020 2 3 0.04 1.02
1:00 am 01:00 Cloudy with Light Rain 43 6 39 4 87 87 WNW 5 7 30.12 1020 2 3 0.00 0.00
1:22 am 01:22 Cloudy with Light Rain 45 7 39 4 81 81 Calm 30.12 1020 2 3 0.00 0.00
1:53 am 01:53 Cloudy with Light Rain 44 6.7 41 5 89 89 WNW 5 7 30.11 1020 2 3 0.05 1.27
2:01 am 02:01 Cloudy with Light Rain 44 6.7 40 4.4 85 85 W 5 7 30.09 1019 2 3 0.00 0.03
2:32 am 02:32 Cloudy with Light Rain 45 7 41 5 87 87 VRB 3 6 30.09 1019 3 4 0.00 0.00
2:53 am 02:53 Cloudy with Mist and Fog 44 6.7 41 5 89 89 WSW 5 7 30.09 1019 3 4 0.03 0.76
3:53 am 03:53 Cloudy with Light Rain 44 6.7 41 5 89 89 Calm 30.05 1018 3 4 0.03 0.76
4:06 am 04:06 Cloudy with Light Rain 44 6.7 41 5 89 89 W 3 6 30.03 1017 3 5 0.00 0.03
4:36 am 04:36 Cloudy with Light Rain 45 7 41 5 87 87 WNW 5 7 30.03 1017 3 4 0.00 0.00
4:53 am 04:53 Cloudy with Light Rain 44 6.7 41 5 89 89 Calm 30.04 1017 3 4 0.03 0.76
5:22 am 05:22 Cloudy with Light Rain 45 7 43 6 93 93 WSW 3 6 30.03 1017 3 5 0.00 0.00
5:53 am 05:53 Cloudy with Rain 45 7.2 41 5 86 86 WSW 5 7 30.00 1016 3 4 0.06 1.52
6:01 am 06:01 Cloudy with Light Rain 44 6.7 41 5 89 89 WSW 5 7 30.00 1016 3 5 0.02 0.51
6:30 am 06:30 Cloudy with Light Rain 46 8 43 6 87 87 SSW 8 13 29.97 1015 4 6 0.00 0.00
6:53 am 06:53 Cloudy with Rain 46 7.8 43 6.1 89 89 SSW 9 15 29.95 1014 3 5 0.09 2.29
7:53 am 07:53 Cloudy with Light Rain 46 7.8 43 6.1 89 89 SSW 10 17 29.92 1013 4 6 0.09 2.29
8:33 am 08:33 Cloudy with Rain 47 8.3 43 6.1 86 86 SSW 12 19 29.94 1014 3 4 0.10 2.54
8:46 am 08:46 Cloudy with Rain 46 8 43 6 87 87 SSW 13 20 29.94 1014 3 5 0.00 0.00
8:53 am 08:53 Cloudy with Rain 47 8.3 43 6.1 86 86 SSW 13 20 29.90 1013 2 3 0.15 3.81
9:53 am 09:53 Cloudy with Rain 47 8.3 44 6.7 90 90 SSW 15 24 29.88 1012 2 3 0.16 4.06
10:00 am 10:00 Cloudy with Rain 46 8 45 7 93 93 SSW 14 22 29.91 1013 3 5 0.00 0.00
10:53 am 10:53 Cloudy with Heavy Rain 48 8.9 44 6.7 86 86 SSW 15 24 29.88 1012 2 3 0.26 6.60
11:43 am 11:43 Cloudy with Rain 48 8.9 44 6.7 86 86 SSW 10 17 29.91 1013 3 5 0.24 6.10
11:53 am 11:53 Cloudy with Rain 48 8.9 44 6.7 86 86 SW 12 19 29.86 1011 4 6 0.27 6.86
11:55 am 11:55 Cloudy with Rain 48 8.9 44 6.7 86 86 SW 13 20 29.88 1012 4 6 0.01 0.25
12:38 pm 12:38 Cloudy with Light Rain 48 9 45 7 87 87 SSW 10 17 29.85 1011 9 14 0.00 0.00
12:53 pm 12:53 Cloudy with Light Rain 49 9.4 45 7.2 86 86 SW 10 17 29.84 1011 10 16 0.05 1.27
12:56 pm 12:56 Cloudy with Light Rain 48 9 45 7 87 87 SW 8 13 29.85 1011 10 16 0.00 0.00
1:53 pm 13:53 Cloudy 50 10 46 7.8 86 86 S 10 17 29.83 1010 10 16 0.00 0.03
2:53 pm 14:53 Cloudy 50 10 46 7.8 86 86 SSW 15 24 29.82 1010 8 13 0.01 0.25
3:04 pm 15:04 Cloudy 50 10 46 8 88 88 SSW 13 20 29.85 1011 8 13 0.00 0.00
3:53 pm 15:53 Cloudy with Light Rain 48 8.9 45 7.2 89 89 Calm 29.83 1010 6 10 0.02 0.51
4:53 pm 16:53 Cloudy 50 10 47 8.3 89 89 SSW 10 17 29.83 1010 7 11 0.00 0.03
5:25 pm 17:25 Cloudy 50 10 47 8.3 89 89 W 7 11 29.85 1011 10 16 0.00 0.00
5:53 pm 17:53 Cloudy with Mist and Fog 49 9.4 45 7.2 86 86 WNW 3 6 29.84 1011 4 6 0.00 0.00
6:34 pm 18:34 Cloudy with Mist and Fog 48 9 46 8 94 94 SW 5 7 29.85 1011 3 5 0.00 0.00
6:53 pm 18:53 Cloudy with Mist and Fog 49 9.4 46 7.8 90 90 S 6 9 29.82 1010 4 6 0.00 0.00
7:53 pm 19:53 Cloudy with Light Rain 49 9.4 46 7.8 90 90 SW 3 6 29.80 1009 5 8 0.00 0.03
8:27 pm 20:27 Cloudy with Light Rain 49 9.4 46 7.8 90 90 SW 6 9 29.83 1010 3 4 0.01 0.25
8:53 pm 20:53 Cloudy with Light Rain 49 9.4 46 7.8 90 90 WSW 6 9 29.79 1009 3 4 0.03 0.76
9:01 pm 21:01 Cloudy with Light Rain 49 9.4 46 7.8 90 90 WSW 7 11 29.80 1009 3 5 0.01 0.25
9:53 pm 21:53 Cloudy with Light Rain 49 9.4 46 7.8 90 90 SW 5 7 29.76 1008 4 6 0.05 1.27
10:06 pm 22:06 Cloudy with Light Rain 50 10 46 8 88 88 SSW 6 9 29.77 1008 5 8 0.00 0.00
10:53 pm 22:53 Cloudy with Light Rain 50 10 47 8.3 89 89 W 5 7 29.72 1007 5 8 0.07 1.78
11:26 pm 23:26 Cloudy with Light Rain 48 9 46 8 94 94 W 3 6 29.74 1007 6 10 0.00 0.00
11:53 pm 23:53 Cloudy with Light Rain 50 10 47 8.3 89 89 SW 3 6 29.69 1006 7 11 0.05 1.27

Powered by AerisWeather